Location: Newark
(0.5300°S, 127.4800°E)
Time: 13:27:23
(UTC+00:00)

Vanguard 3 - Pass Details

Date: 26 September 2019
Orbit: 508 x 3262 km, 33.3° (Epoch: 20 October)

Event Time Altitude Azimuth Distance (km) Brightness Sun altitude
Rises 22:31:38 0° 304° (NW) 5,055 10.7 17.6°
Reaches altitude 10° 22:37:19 10° 327° (NNW) 4,654 10.7 19.0°
Maximum altitude 22:43:47 14° 356° (N) 4,857 11.1 20.6°
Drops below altitude 10° 22:51:35 10° 24° (NNE) 5,749 11.8 22.6°
Sets 23:00:40 0° 45° (NE) 7,134 12.6 24.8°
